Ketchikan, AK

11:08 PM AKDT on September 22, 2018 (GMT -0800)
Ketchikan International

Weather History for PAKT - October, 2017

Change the Weather History Date:

Friday, October 6, 2017

  Actual Average Record
Temperature  
Mean Temperature 50 °F -  
Max Temperature 54 °F 54 °F 69 °F (1964)
Min Temperature 46 °F 44 °F 32 °F (1970)
Degree Days  
Heating Degree Days 16    
Moisture  
Dew Point 46 °F    
Average Humidity 90    
Maximum Humidity 97    
Minimum Humidity 72    
Precipitation  
Precipitation 0.60 in - - ()
Sea Level Pressure  
Sea Level Pressure 29.62 in    
Wind  
Wind Speed 10 mph (SE)    
Max Wind Speed 18 mph    
Max Gust Speed 34 mph    
Visibility 8 miles    
Events Rain    
Averages and records for this station are not official NWS values.
T = Trace of Precipitation, MM = Missing Value Source: NWS Daily Summary

Daily Weather History Graph

Daily Weather History Graph

Search for Another Location

Airport or City:

Astronomy

Oct. 06, 2017 Rise Set
Actual Time 7:00 AM AKDT 6:08 PM AKDT
Civil Twilight 6:23 AM AKDT 6:44 PM AKDT
Nautical Twilight 5:41 AM AKDT 7:27 PM AKDT
Astronomical Twilight 4:57 AM AKDT 8:10 PM AKDT
Moon 7:05 PM AKDT (10/6) 7:55 AM AKDT (10/6)
Length of Visible Light 12h 21m
Length of Day
11h 08m
Full, 99% of the Moon is Illuminated
Oct 6
Full
Oct 12
Last Quarter
Oct 19
New
Oct 27
First Quarter
Nov 3
Full

Hourly Weather History & Observations

Time (AKDT) Temp. Windchill Dew Point Humidity Pressure Visibility Wind Dir Wind Speed Gust Speed Precip Events Conditions
12:53 AM 52.0 °F - 50.0 °F 93% 29.64 in 4.0 mi SE 17.3 mph 28.8 mph 0.08 in Rain Light Rain
1:06 AM 51.1 °F - 50.0 °F 96% 29.62 in 2.5 mi SE 16.1 mph 34.5 mph 0.06 in Rain Rain
1:09 AM 51.1 °F - 50.0 °F 96% 29.62 in 3.0 mi SE 18.4 mph 34.5 mph 0.06 in Rain Rain
1:16 AM 51.1 °F - 48.9 °F 92% 29.62 in 6.0 mi SE 17.3 mph 32.2 mph 0.06 in Rain Light Rain
1:45 AM 51.1 °F - 50.0 °F 96% 29.62 in 2.5 mi SE 15.0 mph 21.9 mph 0.15 in Rain Heavy Rain
1:53 AM 52.0 °F - 48.9 °F 89% 29.62 in 3.0 mi SSE 15.0 mph 25.3 mph 0.20 in Rain Heavy Rain
2:02 AM 52.0 °F - 48.9 °F 89% 29.61 in 2.5 mi SE 11.5 mph - 0.07 in Rain Heavy Rain
2:09 AM 52.0 °F - 48.9 °F 89% 29.61 in 3.0 mi SE 8.1 mph 17.3 mph 0.11 in Rain Heavy Rain
2:30 AM 51.1 °F - 46.0 °F 83% 29.60 in 6.0 mi SSW 3.5 mph - 0.19 in Rain Light Rain
2:53 AM 48.9 °F - 46.0 °F 90% 29.60 in 10.0 mi Calm Calm - 0.19 in   Mostly Cloudy
3:53 AM 48.0 °F - 45.0 °F 89% 29.60 in 10.0 mi SE 3.5 mph - N/A   Scattered Clouds
4:53 AM 46.9 °F - 44.1 °F 90% 29.61 in 10.0 mi SE 5.8 mph - 0.00 in   Scattered Clouds
5:53 AM 48.0 °F - 44.1 °F 86% 29.61 in 10.0 mi SSE 4.6 mph - 0.01 in   Overcast
6:14 AM 46.4 °F 45.2 °F 44.6 °F 93% 29.61 in 10.0 mi SE 3.5 mph - N/A   Overcast
6:53 AM 46.9 °F - 45.0 °F 93% 29.61 in 10.0 mi SE 3.5 mph - N/A   Mostly Cloudy
7:53 AM 46.9 °F - 44.1 °F 90% 29.62 in 10.0 mi SE 4.6 mph - N/A   Mostly Cloudy
8:53 AM 48.2 °F - 46.4 °F 93% 29.62 in 10.0 mi SSE 5.8 mph - N/A   Overcast
9:53 AM 50.0 °F - 44.6 °F 82% 29.64 in 10.0 mi SE 5.8 mph - N/A   Overcast
10:53 AM 50.0 °F - 46.4 °F 87% 29.64 in 10.0 mi East 6.9 mph - N/A Rain Light Rain
11:53 AM 51.8 °F - 44.6 °F 76% 29.63 in 10.0 mi SE 8.1 mph - N/A   Scattered Clouds
12:53 PM 53.6 °F - 44.6 °F 72% 29.63 in 10.0 mi SE 5.8 mph - N/A   Mostly Cloudy
1:53 PM 51.1 °F - 45.0 °F 80% 29.63 in 4.0 mi SSE 6.9 mph - 0.04 in Rain Heavy Rain
2:53 PM 51.8 °F - 46.4 °F 82% 29.62 in 10.0 mi SE 5.8 mph - N/A   Mostly Cloudy
3:53 PM 51.8 °F - 48.2 °F 88% 29.62 in 10.0 mi SE 6.9 mph - N/A   Overcast
4:53 PM 50.0 °F - 46.4 °F 87% 29.61 in 10.0 mi SE 5.8 mph - N/A Rain Light Rain
5:53 PM 48.2 °F - 46.4 °F 93% 29.60 in 9.0 mi South 4.6 mph - N/A Rain Light Rain
6:53 PM 48.2 °F - 46.4 °F 93% 29.60 in 10.0 mi SSE 4.6 mph - N/A   Overcast
7:53 PM 48.0 °F - 46.9 °F 96% 29.61 in 8.0 mi SE 3.5 mph - 0.02 in Rain Light Rain
8:53 PM 48.0 °F - 46.0 °F 93% 29.62 in 10.0 mi Calm Calm - 0.04 in Rain Light Rain
9:08 PM 48.0 °F - 45.0 °F 89% 29.62 in 10.0 mi East 4.6 mph - 0.00 in Rain Light Rain
9:53 PM 46.9 °F - 46.0 °F 97% 29.62 in 10.0 mi SE 3.5 mph - 0.02 in   Overcast
10:05 PM 46.9 °F - 45.0 °F 93% 29.62 in 10.0 mi SSE 5.8 mph - N/A   Overcast
10:16 PM 46.9 °F - 45.0 °F 93% 29.61 in 10.0 mi SE 5.8 mph - N/A   Overcast
10:49 PM 46.4 °F 43.5 °F 44.6 °F 93% 29.62 in 10.0 mi South 5.8 mph - N/A   Mostly Cloudy
10:53 PM 46.0 °F 43.9 °F 44.1 °F 93% 29.62 in 10.0 mi South 4.6 mph - N/A   Mostly Cloudy
11:53 PM 46.0 °F 43.9 °F 44.1 °F 93% 29.64 in 10.0 mi South 4.6 mph - N/A   Overcast